Location: Unspecified
(0.0000°N, 0.0000°E)
Time: 04:53:25
(UTC+00:00)

ARIANE 1 DEB - Pass Details

Date: 17 February 2026
Orbit: 376 x 19604 km, 19.8° (Epoch: 20 January)

Event Time Altitude Azimuth Distance (km) Brightness Sun altitude
Rises 17:04:18 0° 286° (WNW) 23,130 ? 17.0°
Reaches altitude 10° 18:35:13 10° 292° (WNW) 23,231 ? -5.2°
Maximum altitude 20:33:58 87° 21° (NNE) 2,886 ? -34.2°
Enters shadow 20:37:12 59° 105° (ESE) 2,481 ? -34.9°
